TimePDT,TemperatureF,Dew PointF,Humidity,Sea Level PressureIn,VisibilityMPH,Wind Direction,Wind SpeedMPH,Gust SpeedMPH,PrecipitationIn,Events,Conditions,WindDirDegrees,DateUTC
12:53 AM,54.0,48.9,83,30.14,10.0,West,10.4,-,N/A,,Overcast,280,2013-05-09 07:53:00
1:53 AM,54.0,48.9,83,30.13,10.0,West,6.9,-,N/A,,Overcast,280,2013-05-09 08:53:00
2:53 AM,54.0,48.9,83,30.12,10.0,West,8.1,-,N/A,,Overcast,280,2013-05-09 09:53:00
3:53 AM,53.1,48.9,86,30.12,10.0,West,8.1,-,N/A,,Overcast,270,2013-05-09 10:53:00
4:53 AM,54.0,48.9,83,30.11,10.0,West,6.9,-,N/A,,Overcast,280,2013-05-09 11:53:00
5:53 AM,53.1,48.9,86,30.12,10.0,West,9.2,-,N/A,,Overcast,280,2013-05-09 12:53:00
6:53 AM,53.1,48.9,86,30.13,10.0,West,6.9,-,N/A,,Overcast,280,2013-05-09 13:53:00
7:53 AM,54.0,48.9,83,30.14,10.0,WNW,6.9,-,N/A,,Overcast,290,2013-05-09 14:53:00
8:53 AM,55.0,48.0,77,30.16,10.0,WNW,8.1,-,N/A,,Overcast,290,2013-05-09 15:53:00
9:45 AM,57.2,48.2,72,30.16,10.0,West,4.6,-,N/A,,Overcast,270,2013-05-09 16:45:00
10:53 AM,61.0,48.9,64,30.15,10.0,Variable,6.9,-,N/A,,Scattered Clouds,0,2013-05-09 17:53:00
11:53 AM,64.0,48.9,58,30.14,10.0,West,9.2,-,N/A,,Clear,260,2013-05-09 18:53:00
12:53 PM,66.9,50.0,54,30.13,10.0,WNW,8.1,-,N/A,,Clear,290,2013-05-09 19:53:00
1:53 PM,70.0,50.0,49,30.12,10.0,WNW,10.4,16.1,N/A,,Clear,290,2013-05-09 20:53:00
2:53 PM,70.0,48.9,47,30.10,10.0,West,19.6,-,N/A,,Clear,280,2013-05-09 21:53:00
3:53 PM,68.0,48.9,50,30.09,10.0,West,18.4,-,N/A,,Clear,280,2013-05-09 22:53:00
4:53 PM,66.9,48.9,52,30.08,10.0,West,17.3,-,N/A,,Clear,280,2013-05-09 23:53:00
5:53 PM,66.0,48.9,54,30.08,10.0,West,13.8,-,N/A,,Clear,280,2013-05-10 00:53:00
6:53 PM,64.0,48.9,58,30.09,10.0,WNW,12.7,-,N/A,,Clear,290,2013-05-10 01:53:00
7:53 PM,57.9,48.0,70,30.12,10.0,West,11.5,-,N/A,,Clear,280,2013-05-10 02:53:00
8:53 PM,54.0,48.0,80,30.15,10.0,West,15.0,-,N/A,,Clear,280,2013-05-10 03:53:00
10:46 PM,53.6,48.2,82,30.18,10.0,West,6.9,-,N/A,,Mostly Cloudy,270,2013-05-10 05:46:00
10:53 PM,53.1,48.9,86,30.18,10.0,West,8.1,-,N/A,,Mostly Cloudy,260,2013-05-10 05:53:00
11:27 PM,51.8,48.2,88,30.18,10.0,West,9.2,-,N/A,,Scattered Clouds,270,2013-05-10 06:27:00
11:53 PM,53.1,48.9,86,30.19,10.0,West,9.2,-,N/A,,Mostly Cloudy,270,2013-05-10 06:53:00